Lid_Strength_Index
7 7 8 10 12 10 13 14 14 12 11 8 6 6 6 6 6 5 5 4 4 4 3 3 3 2 2 2 2 2 2 1
8 7 7 8 9 13 12 16 18 14 13 13 10 9 8 8 7 6 5 5 4 4 3 3 2 2 2 2 2 2 1 1
8 10 11 10 12 10 11 12 16 18 15 10 10 9 8 8 7 6 5 5 4 4 3 3 2 2 2 2 2 2 2 1
11 8 8 10 11 10 13 14 13 13 15 8 8 8 7 8 6 6 5 5 4 4 3 3 3 3 3 2 2 2 1 1
12 11 9 11 10 11 11 11 14 15 15 7 7 8 7 8 7 6 6 5 4 4 4 4 3 3 5 2 3 2 1 2
14 13 11 11 10 11 13 15 15 14 13 10 9 9 8 7 6 6 6 5 5 4 4 4 3 3 3 2 2 2 2 2
10 9 9 10 10 11 13 14 14 13 13 11 9 8 7 7 6 6 6 5 5 5 4 4 3 3 3 2 2 2 2 2
11 8 9 9 9 9 9 9 11 10 12 8 7 6 7 7 6 6 6 5 5 4 4 4 3 3 3 3 2 2 2 2
14 10 10 12 10 9 9 8 9 12 10 7 8 7 7 7 6 6 5 5 5 4 4 4 3 3 3 2 2 2 2 2
13 12 17 11 7 7 8 8 8 8 8 7 7 6 6 5 6 6 5 4 4 4 4 3 3 2 2 2 2 2 2 2
14 14 11 10 8 9 10 10 7 8 7 6 6 6 6 4 5 5 5 4 4 3 3 3 3 2 2 2 3 3 3 3
13 16 16 11 7 6 7 13 7 6 7 7 6 10 8 5 4 4 3 3 3 3 3 3 3 2 3 3 3 3 3 2
13 14 12 8 6 6 13 13 7 6 7 7 8 7 6 4 4 4 3 3 3 3 3 3 2 3 3 3 3 2 2 2
13 15 16 6 7 11 9 7 6 6 6 7 6 5 5 4 4 4 4 3 3 3 3 3 2 3 3 3 2 2 2 2
11 12 7 6 7 6 5 7 7 6 5 6 6 5 5 5 4 4 4 3 3 3 3 3 2 2 3 3 2 2 2 3
9 8 7 6 5 5 5 6 5 5 5 5 5 5 5 4 4 4 3 4 3 3 3 3 2 2 2 2 2 2 2 3
9 8 7 6 6 5 5 4 4 4 4 4 5 5 4 5 4 4 3 3 3 4 3 3 2 2 2 2 2 2 3 2
12 8 8 7 5 4 5 5 4 5 5 4 4 4 4 4 4 4 4 3 3 3 3 3 3 2 2 2 2 2 3 3
8 5 5 5 4 4 5 4 4 4 4 5 4 4 4 4 4 4 4 3 4 3 3 3 3 3 2 2 2 2 3 3